Location: Spaichingen
(48.0400°N, 8.4300°E)
Time: 02:36:17
(UTC+02:00)

OTV 5 (USA 277) - Visible Passes

Search period start: 25 April 2019 00:00
Search period end: 05 May 2019 00:00
Orbit: 309 x 326 km, 54.5° (Epoch: 21 April)

Date Brightness Start Highest point End Pass type
(mag) Time Alt. Az. Time Alt. Az. Time Alt. Az.
25 Apr ? 21:51:30 10° WSW 21:54:14 87° SE 21:56:58 10° ENE visible
25 Apr ? 23:26:31 10° WNW 23:28:14 22° NW 23:28:14 22° NW visible
26 Apr ? 22:06:22 10° W 22:09:00 45° NNW 22:11:39 10° NE visible
26 Apr ? 23:41:39 10° NW 23:43:07 18° NNW 23:43:07 18° NNW visible
27 Apr ? 22:21:27 10° W 22:23:53 28° NNW 22:26:18 10° NE visible
27 Apr ? 23:56:39 10° NW 23:57:39 16° NNW 23:57:39 16° NNW visible
28 Apr ? 22:36:37 10° WNW 22:38:50 22° N 22:41:02 10° NE visible
29 Apr ? 00:11:27 10° NW 00:11:59 13° NW 00:11:59 13° NW visible
29 Apr ? 21:16:24 10° W 21:18:57 34° NNW 21:21:29 10° NE visible
29 Apr ? 22:51:41 10° NW 22:53:49 20° N 22:55:18 14° NE visible
30 Apr ? 00:26:08 10° NW 00:26:10 10° NW 00:26:10 10° NW visible
30 Apr ? 21:31:32 10° WNW 21:33:51 24° NNW 21:36:10 10° NE visible
30 Apr ? 23:06:34 10° NW 23:08:47 22° N 23:09:25 20° NNE visible
01 May ? 21:46:40 10° NW 21:48:49 20° N 21:50:58 10° NE visible
01 May ? 23:21:18 10° NW 23:23:28 27° N 23:23:28 27° N visible
02 May ? 22:01:38 10° NW 22:03:48 20° N 22:05:57 10° ENE visible
02 May ? 23:35:57 10° NW 23:37:31 28° NNW 23:37:31 28° NNW visible
03 May ? 22:16:26 10° NW 22:18:46 24° NNE 22:20:40 13° ENE visible
03 May ? 23:50:38 10° WNW 23:51:33 19° WNW 23:51:33 19° WNW visible
04 May ? 22:31:07 10° NW 22:33:39 34° NNE 22:34:41 25° ENE visible
